Location: York
(31.8935°S, 116.7682°E)
Time: 23:30:41
(UTC+08:00)

Envisat - Pass Details

Date: 20 May 2021
Orbit: 764 x 766 km, 98.1° (Epoch: 14 June)

Event Time Altitude Azimuth Distance (km) Brightness Sun altitude
Rises 04:58:21 0° 12° (NNE) 3,215 6.5 -25.1°
Reaches altitude 10° 05:00:38 10° 12° (NNE) 2,297 5.7 -24.6°
Maximum altitude 05:05:42 85° 283° (WNW) 779 2.9 -23.5°
Enters shadow 05:08:26 29° 195° (SSW) 1,404 4.1 -23.0°
